#timestamp,LO_Frequency,Hit,StdDev 
1562814015.7,286046998.7,N
1562814035.5,286046998.6,N
1562814055.4,286047001.2,N
1562814075.2,286046999.0,N
1562814095.3,286046998.9,N
1562814115.2,286047000.2,N
1562814135.0,286047002.8,N
1562814135.9,286047002.8,N
1562814155.8,286047000.4,N
1562814175.6,286046999.7,N
1562814195.4,286046999.7,N
1562814215.3,286047000.2,N
1562814235.1,286047001.1,N
1562814255.9,286047002.7,N
1562814275.7,286047000.1,N
1562814295.5,286047000.3,N
1562814315.4,286047000.9,N
1562814335.2,286047000.1,N
1562814355.1,286047002.8,N
1562814356.0,286047002.8,N
1562814375.8,286047000.8,N
1562814395.6,286047000.9,N
1562814415.5,286047000.4,N
1562814435.3,286046999.9,N
1562814455.2,286047001.2,N
1562814475.9,286047000.1,N
1562814495.7,286047000.3,N
1562814515.6,286047000.3,N
1562814535.4,286046998.5,N
1562814555.2,286047000.0,N
1562814575.1,286047000.6,N
1562814576.0,286047000.6,N
1562814595.8,286046998.1,N
1562814615.7,286046998.3,N
1562814635.5,286046996.6,N
1562814655.3,286047000.7,N
1562814675.2,286046998.1,N
1562814695.0,286047000.4,N
1562814695.9,286047000.4,N
1562814715.8,286047000.1,N
1562814735.6,286047000.9,N
1562814755.4,286047000.2,N
1562814775.3,286047001.2,N
1562814795.1,286046999.8,N
1562814815.9,286047000.9,N
1562814835.7,286047000.0,N
1562814855.5,286047000.4,N
1562814875.4,286047002.2,N
1562814895.2,286047000.0,N
1562814915.0,286047000.4,N
1562814915.9,286047000.4,N
1562814935.8,286047000.7,N
1562814955.6,286047000.0,N
1562814975.5,286046999.8,N
1562814995.3,286046998.5,N
1562815015.1,286047000.9,N
1562815035.9,286046998.5,N
1562815055.7,286046999.3,N
1562815075.5,286046999.9,N
1562815095.4,286046998.8,N
1562815115.2,286046999.0,N
1562815135.1,286047001.0,N
1562815136.0,286047001.0,N
1562815155.8,286046999.8,N
1562815175.6,286047000.0,N
1562815195.5,286046999.7,N
1562815215.3,286047000.5,N
1562815235.2,286047001.4,N
1562815255.9,286047001.7,N
1562815275.7,286047004.4,Y
1562815295.6,286047001.4,P
1562815315.4,286047000.5,N
1562815335.2,286047000.4,N
1562815355.1,286047002.7,Y
1562815356.0,286047002.7,P
1562815375.8,286047001.1,N
1562815395.7,286047000.6,N
1562815415.5,286047000.2,N
1562815435.3,286047002.4,N
1562815455.2,286047002.5,N
1562815475.0,286047002.7,N
1562815475.9,286047002.7,N
1562815495.8,286047000.1,N
1562815515.6,286046999.7,N
1562815535.4,286047002.4,N
1562815555.3,286047002.6,N
1562815575.1,286047000.3,N
1562815595.9,286047002.2,N
1562815615.7,286047002.7,N
1562815635.5,286047002.5,N
1562815655.4,286047001.7,N
1562815675.2,286047002.2,N
1562815695.0,286047001.9,N
1562815695.9,286047001.9,N
1562815715.8,286046999.7,N
1562815735.6,286047000.4,N
1562815755.5,286047000.1,N
1562815775.3,286047001.2,N
1562815795.1,286046998.7,N
1562815815.9,286046998.8,N
1562815835.7,286046998.8,N
1562815855.6,286046998.9,N
1562815875.4,286046999.1,N
1562815895.2,286046999.5,N
1562815915.1,286046999.3,N
1562815916.0,286046999.3,N
1562815935.8,286047000.9,N
1562815955.6,286047001.0,N
1562815975.5,286047000.6,N
1562815995.3,286047000.3,N
1562816015.2,286047000.0,N
1562816035.9,286047000.6,N
1562816055.7,286046999.0,N
1562816075.6,286046998.5,N
1562816095.4,286046998.3,N
1562816115.3,286046997.2,N
1562816135.1,286046996.8,N
1562816136.0,286046996.8,N
1562816155.8,286046999.3,N
1562816175.7,286046997.6,N
1562816195.5,286046996.8,N
1562816215.4,286046998.6,N
1562816235.2,286046998.5,N
1562816255.0,286046996.8,N
1562816255.9,286046996.8,N
1562816275.8,286046999.5,N
1562816295.6,286046999.0,N
1562816315.5,286046996.6,N
1562816335.3,286046999.6,N
1562816355.1,286046996.9,N
1562816375.9,286046997.0,N
1562816395.7,286046998.1,N
1562816415.5,286046999.2,N
1562816435.4,286046998.3,N
1562816455.2,286046997.6,N
1562816475.1,286046997.7,N
1562816495.9,286046997.9,N
1562816515.7,286046995.0,Y
1562816535.6,286046999.2,P
1562816555.4,286047001.1,N
1562816575.2,286046999.0,N
1562816595.1,286046998.9,N
1562816596.0,286046998.9,N
1562816615.8,286046997.0,Y
1562816635.7,286046998.0,P
1562816655.5,286046999.0,N
1562816675.3,286046997.0,P
1562816695.2,286046998.9,N
1562816715.9,286046998.7,N
1562816735.7,286046998.8,N
1562816755.6,286046996.7,Y
1562816775.4,286046999.4,P
1562816795.3,286046997.0,P
1562816815.1,286046999.6,N
1562816816.0,286046999.6,N
1562816835.8,286046999.6,N
1562816855.7,286046998.6,N
1562816875.5,286047000.8,N
1562816895.3,286046998.2,N
1562816915.2,286046998.2,N
1562816935.0,286047000.0,N
1562816935.9,286047000.0,N
1562816955.8,286047000.4,N
1562816975.6,286046998.1,N
1562816995.4,286046998.5,N
1562817015.3,286047000.7,N
1562817035.1,286047000.4,N
1562817055.9,286047000.6,N
1562817075.7,286047002.7,N
1562817095.5,286047002.6,N
1562817115.4,286047002.0,N
1562817135.2,286047002.8,N
1562817155.0,286047000.3,N
1562817155.9,286047000.3,N
1562817175.8,286047002.6,N
1562817195.6,286046999.8,N
1562817215.5,286047001.9,N
1562817235.3,286047002.0,N
1562817255.1,286047004.2,N
1562817275.9,286047003.0,N
1562817295.7,286047004.0,N
1562817315.5,286047004.1,N
1562817335.4,286047003.4,N
1562817355.2,286047005.4,N
1562817375.1,286047005.8,N
1562817376.0,286047005.8,N
1562817395.8,286047004.4,N
1562817415.6,286047003.3,N
1562817435.5,286047005.4,N
1562817455.3,286047005.2,N
1562817475.2,286047002.9,N
1562817495.9,286047005.6,N
1562817515.7,286047003.0,N
1562817535.6,286047003.3,N
1562817555.4,286047004.1,N
1562817575.2,286047001.5,N
1562817595.1,286047001.3,N
1562817596.0,286047001.3,N
